GFSNGP_850_temp_060.txt.gz
Temp
10 11 12 13 14 14 13 13 12 14 12 15 15 15 16 21 21 20 21 21 21 20 21 21 20 20 19 19 19 18 16 15 15 15 15 14 13 13 13 13 12 12 11 11
10 10 11 11 13 13 13 13 13 13 13 14 15 16 16 18 19 18 20 21 22 22 21 21 21 21 21 20 20 19 18 18 17 14 14 14 14 13 13 13 12 11 10 10
9 9 9 10 12 13 14 14 14 14 13 15 15 14 15 18 19 20 20 21 21 22 22 22 22 22 21 21 19 19 19 18 17 15 14 13 13 12 12 11 11 11 10 10
6 8 8 11 12 12 12 13 13 14 15 15 15 19 18 19 19 19 20 21 21 21 21 22 21 21 21 20 20 19 19 18 17 16 14 12 12 12 10 10 10 10 10 9
6 7 9 10 13 12 11 11 13 12 13 14 17 16 17 20 20 20 20 21 20 20 21 22 21 21 20 20 20 19 18 17 17 16 14 13 12 11 10 10 9 9 9 8
6 7 7 10 10 10 10 11 11 11 12 12 14 11 12 21 21 21 21 21 21 21 20 19 21 21 20 19 19 18 17 17 16 15 13 12 10 10 10 9 9 9 8 8
7 8 7 8 9 10 11 10 7 8 9 11 10 11 15 16 18 19 19 20 21 21 21 21 20 20 19 18 18 17 16 16 14 12 10 10 10 9 9 9 8 8 7 7
6 6 6 9 9 11 10 9 9 10 9 10 12 14 15 16 17 17 18 19 19 20 19 18 18 18 18 18 17 15 14 13 12 12 10 9 9 9 8 8 7 7 6 4
5 5 8 9 11 12 11 11 12 11 12 11 10 13 13 15 15 16 17 16 17 18 17 18 17 17 16 16 14 13 12 12 11 10 9 8 8 7 6 5 5 5 3 3
6 8 7 9 10 9 9 10 11 12 13 12 10 12 14 13 15 14 13 13 13 13 15 15 16 15 14 13 12 11 11 10 9 9 8 7 6 5 4 4 3 3 2 1
5 6 7 8 8 6 7 8 9 12 11 11 11 11 13 13 13 14 13 11 11 12 11 14 15 12 10 10 10 10 10 9 8 7 6 5 4 3 2 2 1 1 1 0
4 4 4 5 5 6 6 5 6 8 9 9 11 11 13 10 11 12 12 12 10 10 9 10 10 9 9 8 8 8 8 7 6 5 4 3 3 3 1 1 0 -0 -0 -1
4 3 3 4 3 5 6 3 5 4 5 8 11 10 9 9 8 8 9 9 12 9 7 7 7 7 7 6 6 6 6 5 4 3 2 2 1 1 1 -2 -2 -3 -3 -4
1 2 4 3 1 1 5 4 3 1 3 4 2 5 6 8 6 6 5 4 2 7 7 6 5 5 5 4 4 4 3 3 2 1 1 -0 -1 -2 -2 -3 -3 -4 -5 -5
0 1 0 1 1 2 2 0 1 2 3 1 -0 2 3 3 2 -0 -1 -1 -1 -0 -1 0 0 0 -0 1 1 1 0 -1 -2 -2 -3 -3 -4 -4 -5 -5 -6 -6 -7 -8
-3 -1 -0 -0 -2 -2 -1 -2 -1 -1 1 -4 -3 -2 -2 -3 -3 -3 -4 -3 -1 -3 -4 -4 -4 -4 -4 -3 -3 -3 -3 -3 -4 -4 -5 -5 -6 -6 -7 -7 -8 -9 -9 -10
-3 -2 -3 -3 -4 -5 -4 -4 -6 -5 -6 -7 -7 -6 -5 -4 -4 -5 -5 -6 -6 -6 -6 -6 -6 -5 -5 -5 -4 -5 -5 -5 -6 -6 -6 -7 -7 -8 -8 -9 -10 -10 -11 -12
-5 -5 -5 -5 -5 -6 -7 -6 -6 -6 -7 -7 -7 -5 -5 -6 -8 -8 -7 -7 -7 -7 -7 -7 -7 -6 -6 -6 -6 -6 -7 -7 -7 -8 -8 -9 -9 -10 -10 -11 -11 -12 -13 -13
-7 -7 -7 -7 -7 -8 -9 -9 -9 -8 -8 -7 -7 -7 -8 -8 -8 -8 -8 -7 -8 -9 -10 -9 -8 -8 -8 -8 -8 -8 -8 -9 -9 -10 -10 -11 -11 -12 -12 -13 -13 -14 -15 -15
-9 -9 -9 -9 -9 -9 -9 -9 -9 -9 -9 -8 -8 -8 -9 -10 -9 -9 -9 -9 -11 -11 -11 -10 -9 -9 -10 -10 -9 -10 -10 -10 -11 -11 -12 -12 -13 -14 -14 -15 -15 -16 -16 -17
-10 -10 -10 -10 -10 -10 -10 -10 -9 -9 -10 -9 -9 -10 -10 -11 -10 -11 -10 -11 -13 -12 -11 -11 -10 -11 -11 -11 -11 -11 -12 -12 -13 -13 -14 -15 -15 -16 -16 -17 -17 -18 -18 -19
-10 -10 -10 -10 -10 -10 -10 -10 -9 -10 -10 -10 -11 -11 -11 -12 -12 -12 -13 -13 -13 -13 -12 -12 -12 -13 -13 -13 -13 -13 -14 -14 -15 -15 -16 -16 -17 -17 -18 -18 -19 -19 -20 -20
-10 -10 -10 -10 -10 -11 -11 -11 -11 -11 -11 -11 -11 -11 -12 -13 -13 -13 -13 -15 -14 -14 -14 -14 -15 -15 -15 -15 -15 -15 -16 -16 -17 -17 -18 -18 -18 -19 -19 -19 -19 -19 -20 -20
-10 -11 -11 -11 -11 -10 -11 -11 -11 -11 -12 -12 -13 -13 -13 -13 -14 -15 -16 -16 -16 -16 -15 -16 -16 -16 -16 -17 -17 -17 -17 -18 -18 -18 -19 -19 -19 -19 -19 -20 -20 -20 -20 -21
-10 -11 -11 -11 -11 -12 -12 -12 -12 -13 -13 -13 -14 -14 -15 -15 -15 -17 -17 -17 -17 -17 -17 -18 -18 -18 -18 -18 -18 -18 -18 -19 -19 -19 -19 -19 -20 -20 -20 -20 -20 -20 -21 -21
-11 -11 -11 -12 -12 -12 -13 -13 -13 -14 -15 -15 -16 -16 -17 -17 -18 -18 -18 -19 -19 -19 -18 -18 -18 -18 -18 -18 -18 -19 -19 -19 -19 -19 -20 -20 -20 -20 -20 -21 -21 -21 -21 -21
-12 -12 -13 -13 -14 -14 -14 -14 -14 -15 -16 -16 -16 -18 -18 -19 -19 -19 -19 -19 -19 -19 -19 -19 -19 -19 -19 -19 -19 -19 -19 -19 -20 -20 -20 -20 -20 -21 -21 -21 -21 -21 -21 -21

GFSNGP_850_temp_066.txt.gz
Temp
13 13 14 14 15 16 17 18 17 18 19 19 20 21 21 20 20 21 20 20 20 19 19 18 16 15 14 13 13 13 11 11 15 15 14 12 12 12 12 11 11 9 9 10
12 13 14 14 15 16 17 17 17 18 18 20 20 19 19 19 20 21 21 20 20 20 20 19 18 16 15 14 14 15 15 17 14 12 13 15 14 13 12 12 12 11 11 10
11 13 13 13 15 16 16 17 17 16 17 18 18 18 18 19 18 18 19 19 19 19 19 19 19 20 18 19 15 16 19 16 14 12 12 12 14 13 13 12 11 10 10 10
10 10 10 14 15 16 16 15 16 16 15 16 16 15 16 14 14 14 16 16 17 18 17 17 18 18 19 16 17 19 19 16 15 15 14 12 11 11 10 10 10 10 8 8
10 11 13 15 14 15 15 13 14 15 15 15 15 16 16 13 13 13 14 14 15 16 16 17 18 18 18 16 16 15 18 18 16 14 14 14 14 11 10 9 9 9 9 9
9 10 11 14 13 13 14 14 14 14 14 14 14 14 17 14 12 12 13 13 15 15 15 16 17 16 16 17 15 15 14 14 13 13 13 13 12 12 12 10 10 10 10 9
9 10 12 14 13 12 13 13 12 13 13 13 14 14 13 12 12 12 12 12 14 12 14 16 17 15 15 14 13 13 13 13 12 12 11 10 10 11 11 10 10 9 9 9
9 9 9 11 13 13 11 11 11 11 11 10 10 11 12 12 12 12 11 11 13 12 11 13 14 12 11 10 12 11 13 13 13 11 11 11 10 9 10 9 9 9 9 8
11 11 11 10 11 9 8 8 8 8 8 7 9 10 10 11 11 10 10 9 8 12 10 10 10 8 8 11 10 9 9 9 10 10 9 9 9 9 9 9 8 8 8 7
11 12 12 10 8 7 7 7 6 6 6 5 5 6 6 8 8 7 7 6 5 6 10 9 8 8 7 7 8 9 9 9 9 9 9 8 8 8 8 8 7 6 5 4
11 12 10 8 7 5 5 5 4 4 3 3 2 3 3 4 3 3 3 4 1 2 4 7 8 8 7 6 7 7 7 8 8 8 8 7 7 6 5 4 4 4 3 2
10 5 5 6 5 3 3 3 2 2 1 1 0 0 0 -0 -1 -1 -1 4 4 2 3 3 6 7 6 6 5 5 5 5 6 6 6 5 4 3 1 2 1 1 1 0
6 3 3 4 2 2 2 1 0 -0 -1 -2 -2 -2 -2 -3 -1 -1 -1 -0 1 2 1 1 1 4 5 5 6 5 3 2 0 1 1 1 0 1 -1 -3 -3 -3 -3 -3
-0 0 4 1 0 -0 -1 -0 0 -1 -1 -1 -4 -5 -5 -4 -2 -3 -2 -3 -3 0 -0 -1 -1 -0 -1 0 1 3 2 0 -0 -2 -2 -2 -3 -4 -4 -5 -5 -7 -7 -7
-2 -2 -2 -1 -2 -2 -2 -3 -3 -3 -4 -5 -6 -6 -6 -5 -6 -6 -5 -6 -4 -2 -3 -3 -4 -3 -3 -3 -2 -1 -1 -3 -3 -3 -4 -4 -5 -5 -6 -6 -6 -8 -8 -8
-3 -2 -3 -3 -4 -4 -4 -5 -6 -6 -7 -7 -8 -8 -8 -7 -8 -7 -8 -6 -4 -6 -6 -5 -5 -5 -5 -4 -4 -4 -4 -5 -5 -5 -5 -5 -6 -6 -7 -8 -8 -9 -10 -11
-4 -2 -4 -4 -5 -6 -7 -7 -7 -9 -9 -8 -9 -10 -10 -9 -9 -8 -8 -8 -7 -8 -7 -7 -7 -6 -6 -6 -6 -6 -6 -6 -6 -6 -6 -7 -8 -8 -9 -9 -10 -10 -11 -12
-6 -7 -7 -7 -6 -7 -9 -9 -10 -10 -10 -9 -9 -9 -9 -9 -10 -11 -10 -9 -8 -8 -8 -9 -8 -7 -7 -7 -7 -7 -7 -7 -8 -8 -8 -8 -9 -10 -11 -11 -12 -12 -12 -13
-9 -9 -9 -9 -9 -10 -10 -11 -10 -10 -10 -10 -9 -9 -10 -10 -10 -10 -10 -9 -9 -9 -10 -9 -9 -8 -8 -8 -8 -8 -8 -9 -9 -10 -11 -11 -11 -12 -13 -14 -15 -16 -16 -16
-10 -10 -11 -11 -11 -11 -11 -11 -11 -11 -11 -10 -10 -10 -10 -11 -11 -11 -10 -10 -11 -12 -11 -10 -10 -10 -10 -10 -9 -10 -10 -10 -11 -11 -13 -15 -16 -16 -15 -15 -17 -17 -18 -18
-12 -12 -11 -11 -11 -11 -11 -11 -11 -11 -11 -11 -10 -11 -12 -12 -12 -13 -13 -12 -13 -13 -12 -12 -11 -11 -12 -12 -11 -12 -12 -13 -13 -14 -15 -17 -17 -17 -18 -18 -18 -19 -20 -20
-11 -11 -11 -11 -11 -11 -11 -11 -11 -11 -11 -11 -12 -12 -12 -13 -13 -13 -13 -15 -15 -14 -13 -13 -13 -14 -14 -13 -14 -14 -14 -15 -16 -16 -16 -17 -18 -18 -18 -19 -19 -20 -20 -20
-11 -11 -11 -11 -11 -12 -12 -12 -12 -12 -12 -12 -12 -12 -13 -14 -15 -16 -16 -15 -15 -15 -15 -15 -15 -15 -15 -15 -15 -16 -16 -16 -16 -16 -17 -17 -17 -18 -18 -18 -19 -19 -19 -19
-11 -11 -11 -12 -12 -12 -12 -13 -14 -13 -13 -13 -13 -15 -17 -17 -17 -17 -17 -16 -16 -16 -16 -16 -16 -16 -16 -16 -16 -17 -17 -17 -17 -17 -18 -18 -18 -18 -19 -19 -19 -19 -19 -19
-11 -12 -12 -12 -13 -14 -14 -15 -15 -15 -15 -16 -16 -16 -16 -16 -16 -17 -17 -17 -17 -17 -17 -17 -17 -17 -17 -17 -17 -18 -18 -18 -18 -18 -19 -19 -19 -19 -19 -19 -19 -19 -20 -20
-12 -12 -12 -13 -14 -15 -15 -15 -16 -16 -17 -18 -17 -17 -17 -17 -18 -18 -17 -17 -17 -17 -17 -17 -17 -18 -18 -18 -18 -18 -19 -19 -19 -19 -19 -19 -20 -20 -20 -20 -20 -20 -20 -20
-12 -14 -14 -14 -14 -14 -15 -16 -17 -18 -18 -19 -19 -19 -19 -19 -18 -18 -18 -18 -18 -18 -18 -18 -18 -19 -19 -19 -19 -19 -20 -20 -20 -20 -20 -20 -20 -21 -21 -21 -21 -21 -21 -21

GFSNGP_850_temp_072.txt.gz
Temp
8 10 11 11 13 14 15 16 16 17 17 18 17 18 21 21 21 21 21 21 22 21 21 21 20 19 17 16 15 14 13 13 13 12 12 11 11 11 10 10 10 10 10 10
9 11 12 9 15 15 14 15 18 19 17 19 20 20 19 18 17 17 17 17 19 19 19 20 21 20 19 18 17 15 15 14 13 13 12 12 11 11 11 10 10 10 10 10
7 8 10 12 13 14 15 16 16 15 14 18 18 19 17 16 15 15 15 15 15 16 17 17 18 18 18 19 18 17 16 15 14 13 13 12 12 11 11 11 11 11 11 10
7 8 9 12 12 14 14 13 14 14 15 17 18 17 16 15 15 15 14 14 13 13 14 14 15 16 17 17 17 18 17 16 14 14 13 13 12 12 11 11 11 10 10 10
7 8 9 12 11 11 14 11 12 14 15 17 17 16 15 15 14 14 14 14 12 12 11 12 13 14 14 14 15 16 17 17 16 15 14 13 13 13 12 11 11 10 10 10
7 8 8 11 11 9 9 8 11 13 14 14 15 14 13 13 14 15 14 13 12 10 10 11 12 11 11 12 13 14 15 16 15 16 15 15 14 13 13 12 11 11 10 10
8 8 12 14 12 10 8 9 11 12 12 11 11 11 11 11 12 13 13 11 10 9 7 9 10 10 10 10 11 10 11 13 14 14 14 14 14 14 13 13 12 11 11 10
9 9 10 13 12 11 10 10 11 11 10 10 10 10 9 10 10 10 9 8 8 7 4 4 6 7 7 8 7 7 8 9 11 11 13 13 13 13 13 13 13 11 11 10
11 11 11 11 11 10 10 9 9 9 8 8 8 8 7 8 7 7 6 4 3 3 2 3 3 4 5 6 6 7 7 7 8 8 8 9 9 10 10 11 10 11 10 9
11 10 10 9 9 9 8 8 7 7 6 6 6 6 6 5 3 3 2 1 -0 -1 -1 1 2 3 3 4 4 5 6 6 6 5 6 6 7 6 6 8 8 7 6 6
8 7 5 7 7 7 6 6 5 5 5 4 4 3 4 1 -0 -1 -2 -3 -3 -2 -2 -1 1 1 1 1 2 3 4 5 6 5 5 3 2 1 -1 -1 2 3 1 -0
6 7 5 5 4 5 4 4 3 3 2 1 0 1 1 -2 -4 -4 -3 -3 -3 -3 -2 -2 -1 -0 1 1 1 1 1 2 2 2 3 2 2 1 -1 -6 -5 -3 -2 -2
4 5 4 4 2 1 1 1 1 0 -1 -2 -3 -3 -4 -4 -6 -5 -5 -5 -4 -5 -5 -5 -4 -3 -2 -2 -2 -1 -1 -1 -1 -1 -2 -3 -3 -2 -4 -6 -6 -7 -7 -6
2 4 3 0 0 -1 -1 -0 -2 -3 -4 -4 -5 -6 -6 -7 -7 -7 -6 -7 -7 -7 -6 -6 -6 -6 -6 -5 -4 -4 -4 -3 -3 -4 -5 -5 -6 -7 -7 -7 -7 -8 -8 -8
1 1 0 -1 -1 -2 -2 -2 -3 -4 -6 -7 -8 -8 -9 -9 -9 -9 -8 -8 -8 -8 -7 -7 -7 -8 -8 -7 -6 -6 -6 -6 -6 -6 -6 -7 -7 -7 -8 -9 -9 -10 -9 -9
-0 -1 -1 -1 -2 -2 -3 -4 -4 -5 -7 -8 -9 -9 -10 -10 -10 -9 -9 -8 -7 -9 -9 -8 -7 -8 -8 -8 -8 -8 -7 -8 -8 -8 -8 -8 -8 -8 -9 -9 -9 -10 -11 -11
-3 -3 -4 -4 -4 -5 -6 -6 -7 -8 -9 -9 -9 -9 -10 -11 -11 -11 -11 -10 -9 -9 -10 -9 -9 -8 -8 -8 -8 -9 -9 -8 -9 -9 -9 -9 -10 -10 -10 -11 -11 -12 -13 -13
-6 -6 -7 -6 -6 -7 -8 -9 -10 -10 -11 -11 -11 -10 -10 -11 -11 -11 -11 -11 -10 -9 -10 -10 -10 -9 -8 -9 -9 -10 -10 -10 -10 -11 -11 -11 -12 -12 -13 -13 -13 -13 -14 -14
-8 -8 -9 -9 -9 -9 -10 -11 -11 -12 -11 -11 -11 -11 -11 -11 -11 -11 -11 -10 -10 -10 -11 -11 -11 -10 -10 -10 -10 -11 -11 -12 -12 -13 -13 -13 -13 -14 -14 -15 -15 -15 -16 -16
-10 -10 -11 -11 -11 -11 -12 -12 -12 -12 -12 -11 -11 -11 -11 -12 -13 -12 -11 -11 -13 -13 -12 -12 -11 -11 -12 -12 -12 -12 -13 -14 -14 -14 -15 -15 -15 -15 -16 -16 -16 -17 -17 -18
-11 -12 -12 -12 -13 -12 -12 -12 -11 -11 -12 -12 -11 -12 -12 -13 -12 -13 -14 -13 -14 -14 -13 -12 -13 -14 -14 -14 -14 -14 -15 -15 -16 -16 -16 -16 -17 -17 -17 -17 -18 -18 -18 -18
-12 -12 -12 -12 -12 -12 -12 -12 -12 -12 -12 -12 -13 -13 -14 -14 -14 -13 -14 -15 -15 -14 -13 -13 -13 -14 -15 -16 -16 -16 -17 -17 -17 -17 -17 -18 -18 -18 -19 -19 -19 -19 -19 -20
-12 -12 -12 -12 -12 -12 -12 -12 -12 -12 -12 -13 -13 -14 -14 -14 -14 -15 -14 -15 -15 -15 -14 -15 -15 -16 -17 -17 -18 -18 -18 -19 -19 -19 -19 -19 -19 -20 -20 -19 -20 -20 -20 -20
-12 -12 -12 -12 -12 -13 -13 -14 -14 -14 -14 -14 -14 -14 -15 -15 -16 -17 -16 -16 -15 -15 -16 -16 -16 -16 -16 -17 -18 -18 -17 -18 -19 -20 -20 -20 -21 -21 -21 -21 -21 -21 -21 -21
-12 -12 -11 -11 -12 -12 -13 -13 -13 -14 -15 -15 -16 -17 -17 -16 -16 -17 -17 -17 -18 -19 -18 -17 -16 -19 -18 -18 -18 -19 -20 -19 -19 -20 -21 -21 -21 -22 -22 -21 -21 -20 -21 -21
-11 -12 -12 -12 -12 -12 -12 -12 -13 -14 -14 -15 -16 -17 -18 -18 -18 -18 -19 -18 -18 -19 -19 -19 -18 -18 -18 -19 -20 -20 -21 -21 -20 -20 -20 -21 -21 -22 -22 -21 -21 -21 -21 -20
-12 -12 -12 -13 -14 -14 -14 -14 -14 -15 -15 -16 -16 -17 -18 -18 -18 -19 -19 -19 -19 -20 -20 -20 -20 -20 -20 -20 -21 -21 -22 -22 -22 -21 -21 -22 -22 -22 -21 -20 -20 -20 -21 -21

GFSNGP_850_temp_075.txt.gz
Temp
8 9 9 9 9 8 11 10 10 13 15 13 14 14 15 15 15 15 15 15 15 16 16 16 17 17 18 18 17 16 15 14 13 13 12 12 12 10 10 9 9 10 10 10
7 10 8 8 9 8 10 11 11 12 12 11 13 12 14 14 14 14 14 14 13 14 14 15 15 15 15 15 16 16 16 15 15 14 13 12 12 12 11 11 10 9 9 9
6 8 7 8 9 9 10 11 11 11 11 11 11 14 14 13 14 13 13 13 13 13 12 13 14 13 14 14 14 14 15 16 15 15 14 13 13 12 12 11 11 11 10 9
5 7 9 9 12 11 10 11 12 12 13 13 11 13 13 14 14 13 12 12 12 12 13 12 12 13 14 14 14 15 13 12 12 13 14 14 13 13 12 12 12 11 11 10
6 6 8 10 9 9 10 8 8 9 10 10 11 11 11 11 12 11 11 10 10 11 11 12 13 12 10 12 13 13 12 11 11 12 12 13 13 13 14 12 12 12 11 11
6 6 8 9 8 9 10 8 8 8 8 9 11 8 9 9 9 8 7 7 9 10 9 10 10 10 10 10 10 11 12 12 11 11 11 11 12 12 12 12 12 12 11 11
6 6 7 11 9 10 8 7 8 8 8 9 8 8 8 7 6 7 6 4 6 8 7 7 6 7 8 8 8 7 7 7 8 10 10 10 10 12 12 11 11 12 11 10
5 6 7 10 8 8 8 7 7 7 7 7 7 7 6 5 5 6 5 4 4 4 4 3 4 5 5 6 6 6 7 7 7 8 8 8 9 10 11 10 10 10 10 10
7 7 9 8 7 8 7 7 6 6 6 6 5 5 4 3 2 2 2 2 1 1 1 2 2 3 3 3 4 5 5 6 6 6 7 8 7 7 9 9 8 7 6 5
9 8 8 7 6 6 6 6 5 4 4 4 3 3 2 1 0 0 -0 -1 -1 -0 0 0 1 1 1 1 1 2 4 4 5 5 5 6 7 7 6 6 5 4 2 1
3 2 3 3 5 4 4 4 3 3 2 2 2 0 0 -2 -3 -2 -2 -1 -2 -2 -2 -2 -1 0 1 1 1 1 1 1 1 1 1 2 2 1 1 1 0 2 1 -1
4 2 1 1 2 2 2 1 1 0 -1 -1 -1 -3 -2 -4 -4 -4 -4 -4 -3 -3 -4 -5 -4 -3 -2 -1 -1 -0 -0 -0 -1 -1 -2 -2 -2 -3 -4 -5 -5 -4 -3 -2
2 2 1 0 0 0 -0 -1 -2 -2 -3 -4 -4 -4 -5 -5 -6 -6 -6 -6 -6 -6 -6 -6 -6 -5 -5 -4 -3 -3 -3 -4 -4 -4 -4 -5 -5 -5 -6 -7 -6 -7 -8 -7
1 2 -0 -1 -2 -1 -1 -2 -3 -5 -5 -5 -7 -6 -6 -7 -8 -8 -8 -8 -8 -7 -7 -7 -7 -7 -7 -6 -5 -5 -5 -5 -6 -6 -6 -6 -7 -7 -7 -7 -7 -8 -8 -8
-1 -0 -1 -2 -2 -3 -3 -4 -5 -6 -6 -7 -8 -9 -9 -9 -9 -9 -9 -9 -8 -7 -7 -7 -7 -8 -8 -7 -7 -6 -6 -7 -7 -7 -8 -8 -8 -8 -8 -9 -9 -9 -9 -9
-2 -3 -3 -4 -4 -5 -5 -6 -7 -8 -8 -9 -9 -10 -10 -10 -10 -10 -9 -9 -7 -8 -9 -9 -8 -9 -8 -8 -7 -7 -8 -8 -7 -8 -8 -9 -9 -9 -10 -10 -11 -11 -11 -11
-5 -5 -5 -5 -7 -7 -8 -8 -8 -8 -9 -9 -10 -10 -11 -10 -10 -10 -10 -10 -10 -9 -10 -9 -10 -9 -9 -8 -8 -8 -8 -8 -8 -9 -9 -10 -10 -11 -11 -11 -12 -12 -13 -13
-8 -8 -7 -7 -8 -9 -10 -10 -10 -10 -10 -11 -10 -10 -11 -11 -11 -11 -11 -11 -10 -10 -10 -11 -11 -10 -10 -10 -10 -9 -9 -10 -10 -10 -11 -11 -11 -12 -12 -12 -13 -14 -15 -15
-9 -9 -9 -9 -10 -10 -11 -12 -12 -12 -12 -11 -11 -11 -12 -12 -11 -11 -11 -11 -11 -11 -12 -12 -12 -11 -11 -12 -11 -11 -12 -12 -12 -12 -13 -13 -13 -14 -14 -15 -15 -16 -16 -16
-11 -11 -11 -11 -11 -11 -12 -12 -12 -12 -12 -12 -12 -12 -12 -13 -13 -12 -12 -11 -12 -13 -13 -13 -12 -12 -13 -13 -13 -13 -13 -13 -14 -14 -15 -15 -15 -16 -16 -16 -17 -17 -18 -18
-11 -11 -11 -11 -11 -11 -11 -12 -11 -12 -12 -12 -12 -12 -12 -13 -13 -13 -12 -12 -13 -13 -13 -13 -13 -13 -14 -14 -14 -14 -14 -15 -15 -16 -16 -16 -17 -17 -17 -18 -18 -18 -19 -19
-12 -11 -11 -11 -11 -12 -12 -12 -11 -12 -12 -12 -12 -13 -13 -13 -13 -13 -13 -14 -14 -14 -14 -14 -15 -15 -15 -15 -15 -15 -16 -16 -16 -17 -17 -17 -18 -18 -18 -18 -19 -19 -19 -19
-12 -12 -12 -11 -11 -12 -12 -12 -12 -12 -12 -13 -13 -14 -14 -14 -15 -15 -14 -16 -16 -16 -15 -15 -16 -16 -16 -16 -16 -17 -16 -16 -17 -18 -18 -18 -18 -18 -19 -19 -18 -18 -19 -19
-12 -11 -11 -12 -12 -12 -12 -12 -13 -13 -13 -14 -14 -15 -16 -16 -16 -16 -16 -16 -16 -17 -17 -17 -16 -16 -17 -17 -17 -17 -18 -19 -19 -19 -20 -20 -20 -20 -20 -20 -20 -20 -20 -19
-11 -11 -12 -12 -12 -12 -12 -13 -13 -14 -14 -15 -15 -15 -16 -17 -17 -17 -17 -18 -18 -18 -18 -19 -18 -17 -17 -17 -18 -19 -18 -19 -19 -19 -19 -19 -20 -20 -20 -20 -20 -19 -19 -19
-11 -12 -11 -12 -12 -12 -13 -13 -13 -14 -14 -15 -16 -16 -17 -18 -18 -19 -19 -19 -19 -19 -19 -19 -19 -19 -19 -19 -19 -19 -19 -19 -19 -19 -20 -20 -20 -20 -20 -20 -20 -20 -20 -20
-12 -12 -13 -13 -13 -13 -14 -14 -14 -15 -15 -15 -16 -17 -18 -18 -19 -19 -19 -19 -20 -20 -20 -20 -20 -20 -20 -20 -20 -20 -20 -20 -20 -20 -21 -20 -21 -21 -21 -21 -21 -21 -21 -22

GFSNGP_850_temp_078.txt.gz
Temp
7 8 8 9 8 9 8 8 9 12 12 11 10 11 12 13 13 12 12 11 11 12 13 14 13 12 12 13 13 13 13 13 14 14 13 12 11 10 9 9 9 9 9 9
6 8 9 8 8 9 10 8 8 10 11 10 10 10 12 13 13 11 10 9 10 10 11 11 12 12 12 13 13 13 13 13 12 12 12 12 12 12 12 11 10 9 9 9
4 7 7 7 8 9 10 10 10 9 12 10 10 9 9 12 11 10 8 7 9 9 9 10 10 11 12 12 12 12 11 11 10 10 11 12 12 12 12 11 11 11 11 10
4 5 7 9 9 9 9 8 11 11 11 9 8 7 7 9 8 6 5 6 7 8 9 9 9 10 10 11 11 10 10 10 11 11 10 10 10 10 11 11 12 12 11 11
4 5 7 9 7 8 6 6 9 9 9 9 9 8 6 5 5 5 4 4 6 8 7 8 10 9 10 11 10 10 9 10 10 10 10 11 11 10 10 10 10 11 11 11
4 5 6 7 9 9 8 7 7 8 8 7 8 6 5 3 4 4 4 5 5 6 6 6 6 8 10 9 9 9 8 6 8 9 9 10 10 10 10 10 10 10 10 10
5 5 7 9 9 8 7 7 7 6 6 6 6 5 3 2 2 3 4 3 5 6 6 4 4 4 6 6 5 4 5 6 8 8 8 8 7 8 9 9 10 9 10 10
4 5 6 9 8 7 6 5 5 5 5 5 3 2 2 2 2 2 3 4 3 3 2 2 3 3 2 3 2 3 4 6 6 7 7 8 7 7 7 7 8 8 8 8
6 6 7 6 5 5 5 4 4 4 4 4 2 1 0 -0 -0 0 0 -0 -0 0 1 2 2 2 2 1 1 1 3 4 5 5 5 6 6 6 6 6 6 6 6 4
7 3 4 4 4 3 5 3 2 3 2 2 0 -1 -2 -3 -3 -3 -2 -1 -1 -1 -0 -0 1 1 1 1 1 1 1 1 2 2 3 3 3 3 3 2 1 1 0 0
3 1 1 0 0 1 1 2 2 1 0 -1 -1 -3 -3 -4 -4 -4 -4 -3 -2 -2 -2 -2 -2 -0 0 1 1 1 1 1 0 -0 -1 -1 -1 -1 -2 -3 -2 -2 -3 -3
3 0 0 -0 -1 0 0 -2 -1 -1 -1 -3 -3 -4 -4 -5 -5 -5 -6 -5 -5 -5 -4 -4 -3 -3 -2 -2 -2 -2 -1 -2 -2 -2 -2 -3 -4 -5 -6 -6 -5 -5 -6 -5
-1 -1 -1 -1 -1 -0 -1 -3 -3 -4 -5 -4 -5 -5 -6 -7 -7 -7 -7 -6 -6 -6 -6 -6 -6 -6 -5 -4 -4 -3 -3 -4 -4 -4 -4 -4 -5 -6 -7 -8 -7 -7 -8 -8
-1 -1 -2 -2 -3 -3 -4 -4 -4 -5 -6 -6 -7 -7 -8 -8 -8 -8 -8 -8 -8 -7 -7 -7 -7 -7 -7 -6 -6 -6 -6 -6 -5 -5 -6 -6 -6 -7 -7 -7 -8 -8 -8 -8
-3 -2 -3 -3 -3 -4 -5 -5 -5 -7 -7 -8 -8 -8 -9 -8 -9 -9 -9 -9 -8 -8 -8 -8 -8 -8 -8 -7 -6 -6 -6 -7 -7 -7 -7 -7 -7 -7 -8 -8 -8 -9 -9 -9
-4 -4 -5 -5 -5 -6 -6 -7 -7 -9 -9 -10 -10 -10 -10 -10 -10 -10 -10 -9 -7 -8 -9 -9 -8 -9 -9 -8 -8 -7 -7 -8 -8 -8 -8 -8 -8 -8 -8 -9 -9 -9 -9 -10
-6 -6 -6 -7 -7 -7 -8 -8 -8 -9 -9 -10 -10 -11 -10 -10 -10 -10 -10 -10 -10 -9 -9 -9 -10 -9 -9 -9 -8 -8 -9 -9 -9 -9 -9 -10 -10 -10 -10 -11 -11 -11 -11 -12
-8 -8 -8 -8 -10 -10 -11 -11 -10 -10 -10 -11 -11 -11 -10 -10 -10 -11 -11 -11 -10 -10 -10 -10 -10 -10 -10 -10 -10 -10 -10 -10 -10 -10 -11 -11 -11 -12 -12 -13 -13 -13 -14 -14
-9 -10 -10 -10 -11 -12 -12 -11 -11 -11 -11 -11 -11 -10 -11 -11 -11 -11 -11 -11 -10 -10 -10 -11 -11 -11 -11 -11 -11 -11 -11 -12 -12 -12 -13 -13 -13 -14 -14 -14 -15 -15 -16 -16
-11 -11 -10 -11 -11 -11 -11 -11 -11 -11 -11 -11 -11 -11 -11 -11 -12 -12 -12 -11 -11 -12 -13 -13 -13 -12 -12 -13 -13 -13 -13 -13 -13 -14 -14 -14 -15 -15 -16 -16 -16 -16 -16 -17
-11 -11 -11 -11 -11 -12 -11 -12 -11 -11 -12 -13 -12 -12 -13 -13 -13 -13 -13 -13 -13 -14 -14 -14 -14 -14 -14 -14 -14 -14 -15 -15 -15 -15 -16 -16 -16 -16 -17 -17 -17 -18 -18 -18
-11 -11 -11 -11 -11 -12 -12 -12 -12 -12 -12 -12 -13 -13 -14 -13 -14 -14 -14 -14 -15 -15 -15 -15 -15 -15 -15 -15 -15 -15 -15 -15 -16 -16 -17 -17 -17 -17 -18 -18 -18 -18 -19 -19
-11 -11 -11 -11 -11 -11 -12 -12 -12 -13 -13 -13 -14 -14 -15 -15 -15 -15 -15 -16 -16 -16 -16 -16 -15 -15 -16 -16 -15 -16 -16 -16 -16 -17 -17 -18 -18 -18 -19 -19 -19 -19 -19 -19
-11 -11 -11 -12 -12 -12 -12 -12 -13 -13 -14 -14 -15 -15 -16 -16 -16 -16 -16 -17 -18 -17 -17 -17 -17 -17 -17 -17 -17 -17 -17 -18 -18 -18 -18 -18 -18 -19 -19 -19 -19 -19 -19 -19
-12 -12 -12 -12 -13 -13 -13 -13 -14 -14 -15 -15 -15 -16 -16 -17 -17 -18 -18 -18 -18 -19 -19 -19 -19 -19 -18 -19 -18 -18 -18 -19 -19 -19 -19 -19 -19 -20 -20 -20 -20 -20 -20 -20
-12 -12 -12 -13 -13 -13 -13 -13 -14 -15 -15 -15 -16 -16 -17 -17 -18 -19 -19 -19 -19 -20 -20 -20 -20 -20 -20 -20 -20 -20 -20 -20 -20 -20 -21 -21 -21 -21 -21 -21 -21 -21 -21 -21
-12 -13 -13 -13 -13 -13 -14 -14 -14 -15 -16 -16 -17 -17 -18 -18 -19 -19 -19 -20 -20 -20 -20 -20 -21 -21 -21 -21 -21 -21 -21 -21 -21 -21 -21 -21 -21 -21 -21 -21 -21 -21 -21 -21